Saint Bonnet de Bellac- Haute Vienne - France
Donnes mto: mercredi, 14/03/2012
Date Horaire Temp. E. Hum. E. P.atmo. Pluie Vent Direction Direction Ensoleilleme Solaire P. de rose Temp au vent Rafales
14/03/2012 00:00 10,4 C 73 % 1025,6 hPa 0,0 mm 4,3 km/h (1 Bft) N 360 0 min 0 W/m 5,8 C 10,4 C 4,3 km/h (1 Bft)
14/03/2012 00:10 10,3 C 73 % 1025,5 hPa 0,0 mm 5,0 km/h (1 Bft) N-NE 22 0 min 0 W/m 5,7 C 10,3 C 7,2 km/h (2 Bft)
14/03/2012 00:20 10,0 C 73 % 1025,6 hPa 0,0 mm 4,0 km/h (1 Bft) N-NE 22 0 min 0 W/m 5,4 C 10,0 C 7,2 km/h (2 Bft)
14/03/2012 00:30 9,7 C 74 % 1025,6 hPa 0,0 mm 4,7 km/h (1 Bft) N-NE 22 0 min 0 W/m 5,3 C 9,5 C 7,2 km/h (2 Bft)
14/03/2012 00:40 9,4 C 75 % 1025,5 hPa 0,0 mm 3,2 km/h (1 Bft) N-NE 22 0 min 0 W/m 5,2 C 9,4 C 3,6 km/h (1 Bft)
14/03/2012 00:50 9,2 C 76 % 1025,4 hPa 0,0 mm 2,5 km/h (1 Bft) N-NE 22 0 min 0 W/m 5,2 C 9,2 C 4,3 km/h (1 Bft)
14/03/2012 01:00 9,0 C 76 % 1025,4 hPa 0,0 mm 3,2 km/h (1 Bft) NE 45 0 min 0 W/m 5,0 C 9,0 C 7,9 km/h (2 Bft)
14/03/2012 01:10 8,8 C 78 % 1025,3 hPa 0,0 mm 2,2 km/h (1 Bft) N-NE 22 0 min 0 W/m 5,2 C 8,8 C 2,2 km/h (1 Bft)
14/03/2012 01:20 8,6 C 77 % 1025,3 hPa 0,0 mm 2,2 km/h (1 Bft) N-NE 22 0 min 0 W/m 4,8 C 8,6 C 2,2 km/h (1 Bft)
14/03/2012 01:30 8,3 C 78 % 1025,3 hPa 0,0 mm 0,7 km/h (0 Bft) N-NE 22 0 min 0 W/m 4,7 C 8,3 C 4,3 km/h (1 Bft)
14/03/2012 01:40 8,1 C 79 % 1025,4 hPa 0,0 mm 2,9 km/h (1 Bft) NE 45 0 min 0 W/m 4,7 C 8,1 C 4,0 km/h (1 Bft)
14/03/2012 01:50 8,0 C 80 % 1025,4 hPa 0,0 mm 2,9 km/h (1 Bft) N-NE 22 0 min 0 W/m 4,8 C 8,0 C 3,2 km/h (1 Bft)
14/03/2012 02:02 7,8 C 80 % 1025,4 hPa 0,0 mm 0,4 km/h (0 Bft) N-NE 22 0 min 0 W/m 4,6 C 7,8 C 1,8 km/h (1 Bft)
14/03/2012 02:10 7,6 C 81 % 1025,4 hPa 0,0 mm 0,4 km/h (0 Bft) N 360 0 min 0 W/m 4,6 C 7,6 C 3,6 km/h (1 Bft)
14/03/2012 02:20 7,3 C 81 % 1025,3 hPa 0,0 mm 0,0 km/h (0 Bft) N 360 0 min 0 W/m 4,3 C 7,3 C 0,0 km/h (0 Bft)
14/03/2012 02:30 6,9 C 81 % 1025,4 hPa 0,0 mm 0,0 km/h (0 Bft) N 360 0 min 0 W/m 3,9 C 6,9 C 0,0 km/h (0 Bft)
14/03/2012 02:40 6,6 C 82 % 1025,4 hPa 0,0 mm 0,0 km/h (0 Bft) N-NE 22 0 min 0 W/m 3,8 C 6,6 C 0,0 km/h (0 Bft)
14/03/2012 02:50 6,4 C 82 % 1025,3 hPa 0,0 mm 0,0 km/h (0 Bft) N-NE 22 0 min 0 W/m 3,6 C 6,4 C 0,0 km/h (0 Bft)
14/03/2012 03:00 6,0 C 82 % 1025,3 hPa 0,0 mm 0,0 km/h (0 Bft) N-NE 22 0 min 0 W/m 3,2 C 6,0 C 0,0 km/h (0 Bft)
14/03/2012 03:10 5,7 C 83 % 1025,3 hPa 0,0 mm 0,0 km/h (0 Bft) N-NE 22 0 min 0 W/m 3,0 C 5,7 C 0,0 km/h (0 Bft)
14/03/2012 03:20 5,4 C 83 % 1025,1 hPa 0,0 mm 0,0 km/h (0 Bft) N-NE 22 0 min 0 W/m 2,7 C 5,4 C 0,0 km/h (0 Bft)
14/03/2012 03:30 5,3 C 84 % 1025,1 hPa 0,0 mm 0,0 km/h (0 Bft) N-NE 22 0 min 0 W/m 2,8 C 5,3 C 0,0 km/h (0 Bft)
14/03/2012 03:40 5,2 C 84 % 1025,1 hPa 0,0 mm 0,0 km/h (0 Bft) N 360 0 min 0 W/m 2,7 C 5,2 C 3,2 km/h (1 Bft)
14/03/2012 03:50 5,3 C 85 % 1025,0 hPa 0,0 mm 0,0 km/h (0 Bft) N-NE 22 0 min 0 W/m 3,0 C 5,3 C 0,0 km/h (0 Bft)
14/03/2012 04:00 5,5 C 85 % 1025,0 hPa 0,0 mm 0,0 km/h (0 Bft) N-NE 22 0 min 0 W/m 3,2 C 5,5 C 2,9 km/h (1 Bft)
14/03/2012 04:10 5,5 C 85 % 1024,9 hPa 0,0 mm 0,0 km/h (0 Bft) N-NE 22 0 min 0 W/m 3,2 C 5,5 C 0,0 km/h (0 Bft)
14/03/2012 04:20 5,4 C 86 % 1024,8 hPa 0,0 mm 0,0 km/h (0 Bft) N-NE 22 0 min 0 W/m 3,3 C 5,4 C 0,0 km/h (0 Bft)
14/03/2012 04:30 5,3 C 86 % 1024,9 hPa 0,0 mm 0,0 km/h (0 Bft) N-NE 22 0 min 0 W/m 3,2 C 5,3 C 0,0 km/h (0 Bft)
14/03/2012 04:40 5,1 C 86 % 1024,9 hPa 0,0 mm 0,0 km/h (0 Bft) N-NE 22 0 min 0 W/m 3,0 C 5,1 C 3,2 km/h (1 Bft)
14/03/2012 04:50 5,1 C 86 % 1024,8 hPa 0,0 mm 0,0 km/h (0 Bft) N-NE 22 0 min 0 W/m 3,0 C 5,1 C 0,0 km/h (0 Bft)
14/03/2012 05:00 4,9 C 86 % 1024,8 hPa 0,0 mm 0,0 km/h (0 Bft) N-NE 22 0 min 0 W/m 2,8 C 4,9 C 0,0 km/h (0 Bft)
14/03/2012 05:10 4,8 C 86 % 1024,9 hPa 0,0 mm 0,0 km/h (0 Bft) NE 45 0 min 0 W/m 2,7 C 4,8 C 0,0 km/h (0 Bft)
14/03/2012 05:20 4,6 C 87 % 1024,8 hPa 0,0 mm 0,0 km/h (0 Bft) NE 45 0 min 0 W/m 2,6 C 4,6 C 0,0 km/h (0 Bft)
14/03/2012 05:30 4,5 C 87 % 1024,7 hPa 0,0 mm 0,0 km/h (0 Bft) NE 45 0 min 0 W/m 2,5 C 4,5 C 0,0 km/h (0 Bft)
14/03/2012 05:40 4,4 C 88 % 1024,7 hPa 0,0 mm 0,0 km/h (0 Bft) NE 45 0 min 0 W/m 2,6 C 4,4 C 0,0 km/h (0 Bft)
14/03/2012 05:50 4,1 C 88 % 1024,7 hPa 0,0 mm 0,0 km/h (0 Bft) E-NE 67 0 min 0 W/m 2,3 C 4,1 C 0,0 km/h (0 Bft)
14/03/2012 06:00 3,8 C 88 % 1024,7 hPa 0,0 mm 0,0 km/h (0 Bft) E-NE 67 0 min 0 W/m 2,0 C 3,8 C 0,0 km/h (0 Bft)
14/03/2012 06:10 3,7 C 88 % 1024,8 hPa 0,0 mm 0,0 km/h (0 Bft) E-NE 67 0 min 0 W/m 1,9 C 3,7 C 0,0 km/h (0 Bft)
14/03/2012 06:20 3,7 C 88 % 1024,7 hPa 0,0 mm 0,0 km/h (0 Bft) E-NE 67 0 min 0 W/m 1,9 C 3,7 C 0,0 km/h (0 Bft)
14/03/2012 06:30 3,8 C 88 % 1024,8 hPa 0,0 mm 0,4 km/h (0 Bft) E 90 0 min 0 W/m 2,0 C 3,8 C 0,4 km/h (0 Bft)
14/03/2012 06:40 3,9 C 88 % 1024,7 hPa 0,0 mm 1,4 km/h (1 Bft) E-SE 112 0 min 0 W/m 2,1 C 3,9 C 3,6 km/h (1 Bft)
14/03/2012 06:50 4,1 C 89 % 1024,7 hPa 0,0 mm 0,4 km/h (0 Bft) E 90 0 min 0 W/m 2,5 C 4,1 C 0,4 km/h (0 Bft)
14/03/2012 07:00 4,1 C 89 % 1024,7 hPa 0,0 mm 1,1 km/h (1 Bft) E-NE 67 0 min 0 W/m 2,5 C 4,1 C 3,6 km/h (1 Bft)
14/03/2012 07:10 3,9 C 89 % 1024,6 hPa 0,0 mm 1,1 km/h (1 Bft) E-NE 67 0 min 0 W/m 2,3 C 3,9 C 1,1 km/h (1 Bft)
14/03/2012 07:20 3,7 C 89 % 1024,7 hPa 0,0 mm 1,8 km/h (1 Bft) E 90 2 min 0 W/m 2,1 C 3,7 C 4,3 km/h (1 Bft)
14/03/2012 07:30 3,5 C 88 % 1024,8 hPa 0,0 mm 0,7 km/h (0 Bft) E 90 2 min 0 W/m 1,7 C 3,5 C 0,7 km/h (0 Bft)
14/03/2012 07:40 3,3 C 88 % 1024,7 hPa 0,0 mm 0,4 km/h (0 Bft) E-NE 67 2 min 0 W/m 1,5 C 3,3 C 4,0 km/h (1 Bft)
14/03/2012 07:50 3,2 C 89 % 1024,8 hPa 0,0 mm 0,0 km/h (0 Bft) E 90 2 min 0 W/m 1,6 C 3,2 C 0,0 km/h (0 Bft)
14/03/2012 08:00 3,1 C 89 % 1024,8 hPa 0,0 mm 0,0 km/h (0 Bft) E 90 2 min 0 W/m 1,5 C 3,1 C 0,0 km/h (0 Bft)
14/03/2012 08:10 3,1 C 90 % 1024,8 hPa 0,0 mm 0,0 km/h (0 Bft) E 90 2 min 0 W/m 1,6 C 3,1 C 0,0 km/h (0 Bft)
14/03/2012 08:20 3,8 C 90 % 1024,9 hPa 0,0 mm 0,0 km/h (0 Bft) E 90 2 min 0 W/m 2,3 C 3,8 C 0,0 km/h (0 Bft)
14/03/2012 08:30 4,6 C 91 % 1024,9 hPa 0,0 mm 0,0 km/h (0 Bft) E 90 2 min 0 W/m 3,3 C 4,6 C 0,0 km/h (0 Bft)
14/03/2012 08:40 5,5 C 91 % 1025,2 hPa 0,0 mm 0,0 km/h (0 Bft) E 90 2 min 0 W/m 4,2 C 5,5 C 0,0 km/h (0 Bft)
14/03/2012 08:50 6,4 C 90 % 1025,2 hPa 0,0 mm 0,0 km/h (0 Bft) E 90 2 min 0 W/m 4,9 C 6,4 C 0,0 km/h (0 Bft)
14/03/2012 09:00 7,3 C 87 % 1025,3 hPa 0,0 mm 0,0 km/h (0 Bft) E 90 2 min 0 W/m 5,3 C 7,3 C 0,0 km/h (0 Bft)
14/03/2012 09:10 8,3 C 85 % 1025,4 hPa 0,0 mm 0,0 km/h (0 Bft) E 90 2 min 0 W/m 5,9 C 8,3 C 3,2 km/h (1 Bft)
14/03/2012 09:20 9,3 C 84 % 1025,3 hPa 0,0 mm 0,0 km/h (0 Bft) E 90 2 min 0 W/m 6,7 C 9,3 C 0,0 km/h (0 Bft)
14/03/2012 09:30 10,4 C 81 % 1025,3 hPa 0,0 mm 0,0 km/h (0 Bft) E 90 2 min 0 W/m 7,3 C 10,4 C 0,0 km/h (0 Bft)
14/03/2012 09:40 11,4 C 78 % 1025,5 hPa 0,0 mm 0,0 km/h (0 Bft) E 90 2 min 0 W/m 7,7 C 11,4 C 0,0 km/h (0 Bft)
14/03/2012 09:50 12,3 C 76 % 1025,4 hPa 0,0 mm 0,0 km/h (0 Bft) E 90 2 min 0 W/m 8,2 C 12,3 C 0,0 km/h (0 Bft)
14/03/2012 10:00 12,9 C 73 % 1025,5 hPa 0,0 mm 0,0 km/h (0 Bft) E 90 2 min 0 W/m 8,2 C 12,9 C 0,0 km/h (0 Bft)
14/03/2012 10:10 13,7 C 70 % 1025,6 hPa 0,0 mm 0,0 km/h (0 Bft) E 90 2 min 0 W/m 8,3 C 13,7 C 0,0 km/h (0 Bft)
14/03/2012 10:20 14,6 C 69 % 1025,6 hPa 0,0 mm 3,2 km/h (1 Bft) E-NE 67 2 min 0 W/m 9,0 C 14,6 C 4,3 km/h (1 Bft)
14/03/2012 10:30 15,4 C 66 % 1025,6 hPa 0,0 mm 0,0 km/h (0 Bft) E-NE 67 2 min 0 W/m 9,1 C 15,4 C 0,0 km/h (0 Bft)
14/03/2012 10:40 16,5 C 64 % 1025,5 hPa 0,0 mm 0,0 km/h (0 Bft) E-NE 67 2 min 0 W/m 9,7 C 16,5 C 3,6 km/h (1 Bft)
14/03/2012 10:50 17,6 C 61 % 1025,6 hPa 0,0 mm 0,0 km/h (0 Bft) E-NE 67 2 min 0 W/m 10,0 C 17,6 C 0,0 km/h (0 Bft)
14/03/2012 11:00 18,5 C 58 % 1025,5 hPa 0,0 mm 0,0 km/h (0 Bft) SO 225 2 min 0 W/m 10,1 C 18,5 C 0,0 km/h (0 Bft)
14/03/2012 11:10 19,3 C 57 % 1025,6 hPa 0,0 mm 0,0 km/h (0 Bft) SO 225 2 min 0 W/m 10,6 C 19,3 C 0,0 km/h (0 Bft)
14/03/2012 11:20 20,2 C 54 % 1025,7 hPa 0,0 mm 0,0 km/h (0 Bft) NO 315 2 min 0 W/m 10,6 C 20,2 C 0,0 km/h (0 Bft)
14/03/2012 11:30 21,1 C 50 % 1025,7 hPa 0,0 mm 1,8 km/h (1 Bft) N-NO 337 2 min 0 W/m 10,3 C 21,1 C 2,9 km/h (1 Bft)
14/03/2012 11:40 21,8 C 49 % 1025,9 hPa 0,0 mm 1,8 km/h (1 Bft) N-NO 337 2 min 0 W/m 10,6 C 21,8 C 6,8 km/h (2 Bft)
14/03/2012 11:50 22,3 C 47 % 1025,9 hPa 0,0 mm 0,0 km/h (0 Bft) N-NE 22 2 min 0 W/m 10,4 C 22,3 C 0,0 km/h (0 Bft)
14/03/2012 12:00 22,8 C 46 % 1025,8 hPa 0,0 mm 0,0 km/h (0 Bft) N 360 2 min 0 W/m 10,6 C 22,8 C 0,0 km/h (0 Bft)
14/03/2012 12:10 23,1 C 47 % 1025,8 hPa 0,0 mm 5,4 km/h (2 Bft) N-NE 22 2 min 0 W/m 11,2 C 23,1 C 9,4 km/h (2 Bft)
14/03/2012 12:20 23,1 C 48 % 1025,8 hPa 0,0 mm 4,3 km/h (1 Bft) NO 315 2 min 0 W/m 11,5 C 23,1 C 9,7 km/h (2 Bft)
14/03/2012 12:30 23,1 C 50 % 1026,0 hPa 0,0 mm 0,0 km/h (0 Bft) N-NO 337 2 min 0 W/m 12,1 C 23,1 C 0,0 km/h (0 Bft)
14/03/2012 12:40 23,2 C 50 % 1025,9 hPa 0,0 mm 3,6 km/h (1 Bft) NO 315 2 min 0 W/m 12,2 C 23,2 C 9,0 km/h (2 Bft)
14/03/2012 12:50 23,1 C 49 % 1025,9 hPa 0,0 mm 3,6 km/h (1 Bft) N-NE 22 2 min 0 W/m 11,8 C 23,1 C 3,6 km/h (1 Bft)
14/03/2012 13:00 23,0 C 49 % 1025,9 hPa 0,0 mm 4,7 km/h (1 Bft) N 360 2 min 0 W/m 11,7 C 23,0 C 7,6 km/h (2 Bft)
14/03/2012 13:10 23,0 C 50 % 1025,8 hPa 0,0 mm 9,0 km/h (2 Bft) N-NO 337 2 min 0 W/m 12,0 C 23,0 C 14,4 km/h (3 Bft)
14/03/2012 13:20 22,9 C 49 % 1025,7 hPa 0,0 mm 7,2 km/h (2 Bft) NO 315 2 min 0 W/m 11,6 C 22,9 C 9,0 km/h (2 Bft)
14/03/2012 13:30 22,9 C 49 % 1025,6 hPa 0,0 mm 0,0 km/h (0 Bft) N-NO 337 2 min 0 W/m 11,6 C 22,9 C 6,1 km/h (2 Bft)
14/03/2012 13:40 22,8 C 48 % 1025,5 hPa 0,0 mm 5,0 km/h (1 Bft) N-NO 337 2 min 0 W/m 11,2 C 22,8 C 7,9 km/h (2 Bft)
14/03/2012 13:50 22,8 C 48 % 1025,4 hPa 0,0 mm 5,0 km/h (1 Bft) NO 315 2 min 0 W/m 11,2 C 22,8 C 5,0 km/h (1 Bft)
14/03/2012 14:00 22,8 C 48 % 1025,3 hPa 0,0 mm 0,7 km/h (0 Bft) N-NO 337 2 min 0 W/m 11,2 C 22,8 C 3,2 km/h (1 Bft)
14/03/2012 14:10 22,9 C 49 % 1025,1 hPa 0,0 mm 2,2 km/h (1 Bft) NO 315 2 min 0 W/m 11,6 C 22,9 C 3,6 km/h (1 Bft)
14/03/2012 14:20 23,1 C 48 % 1025,0 hPa 0,0 mm 2,2 km/h (1 Bft) N-NE 22 2 min 0 W/m 11,5 C 23,1 C 3,2 km/h (1 Bft)
14/03/2012 14:30 23,3 C 49 % 1024,8 hPa 0,0 mm 4,3 km/h (1 Bft) N-NE 22 2 min 0 W/m 12,0 C 23,3 C 7,6 km/h (2 Bft)
14/03/2012 14:40 23,3 C 48 % 1024,7 hPa 0,0 mm 8,3 km/h (2 Bft) NO 315 2 min 0 W/m 11,7 C 23,3 C 10,1 km/h (2 Bft)
14/03/2012 14:50 23,1 C 49 % 1024,7 hPa 0,0 mm 3,2 km/h (1 Bft) NO 315 2 min 0 W/m 11,8 C 23,1 C 7,2 km/h (2 Bft)
14/03/2012 15:00 23,2 C 48 % 1024,5 hPa 0,0 mm 2,5 km/h (1 Bft) NO 315 2 min 0 W/m 11,6 C 23,2 C 6,5 km/h (2 Bft)
14/03/2012 15:10 23,3 C 48 % 1024,5 hPa 0,0 mm 2,5 km/h (1 Bft) NO 315 2 min 0 W/m 11,7 C 23,3 C 9,0 km/h (2 Bft)
14/03/2012 15:20 23,3 C 47 % 1024,3 hPa 0,0 mm 5,4 km/h (2 Bft) N-NO 337 2 min 0 W/m 11,3 C 23,3 C 12,2 km/h (2 Bft)
14/03/2012 15:30 23,3 C 47 % 1024,3 hPa 0,0 mm 3,6 km/h (1 Bft) N-NO 337 0 min 0 W/m 11,3 C 23,3 C 3,6 km/h (1 Bft)
14/03/2012 15:40 23,2 C 47 % 1024,1 hPa 0,0 mm 0,4 km/h (0 Bft) NO 315 0 min 0 W/m 11,3 C 23,2 C 0,4 km/h (0 Bft)
14/03/2012 15:50 23,2 C 45 % 1024,1 hPa 0,0 mm 3,6 km/h (1 Bft) N-NO 337 0 min 0 W/m 10,6 C 23,2 C 4,3 km/h (1 Bft)
14/03/2012 16:00 23,2 C 45 % 1024,0 hPa 0,0 mm 2,5 km/h (1 Bft) N-NO 337 0 min 0 W/m 10,6 C 23,2 C 7,9 km/h (2 Bft)
14/03/2012 16:10 23,2 C 45 % 1024,0 hPa 0,0 mm 5,8 km/h (2 Bft) N-NE 22 0 min 0 W/m 10,6 C 23,2 C 5,8 km/h (2 Bft)
14/03/2012 16:20 23,2 C 44 % 1024,0 hPa 0,0 mm 4,7 km/h (1 Bft) N-NE 22 0 min 0 W/m 10,3 C 23,2 C 8,3 km/h (2 Bft)
14/03/2012 16:30 23,1 C 45 % 1023,8 hPa 0,0 mm 0,0 km/h (0 Bft) N 360 0 min 0 W/m 10,5 C 23,1 C 0,0 km/h (0 Bft)
14/03/2012 16:40 22,9 C 45 % 1023,9 hPa 0,0 mm 7,6 km/h (2 Bft) N-NE 22 0 min 0 W/m 10,3 C 22,9 C 10,1 km/h (2 Bft)
14/03/2012 16:50 22,8 C 44 % 1023,8 hPa 0,0 mm 4,0 km/h (1 Bft) N-NE 22 0 min 0 W/m 9,9 C 22,8 C 12,6 km/h (3 Bft)
14/03/2012 17:00 22,5 C 45 % 1023,9 hPa 0,0 mm 4,3 km/h (1 Bft) N 360 0 min 0 W/m 10,0 C 22,5 C 4,3 km/h (1 Bft)
14/03/2012 17:10 22,3 C 46 % 1023,9 hPa 0,0 mm 5,8 km/h (2 Bft) N 360 0 min 0 W/m 10,1 C 22,3 C 8,6 km/h (2 Bft)
14/03/2012 17:20 22,1 C 46 % 1023,9 hPa 0,0 mm 4,3 km/h (1 Bft) N-NE 22 0 min 0 W/m 9,9 C 22,1 C 6,1 km/h (2 Bft)
14/03/2012 17:30 21,8 C 46 % 1023,9 hPa 0,0 mm 3,6 km/h (1 Bft) N-NE 22 0 min 0 W/m 9,7 C 21,8 C 7,9 km/h (2 Bft)
14/03/2012 17:40 21,6 C 47 % 1024,0 hPa 0,0 mm 5,0 km/h (1 Bft) N-NE 22 0 min 0 W/m 9,8 C 21,6 C 9,0 km/h (2 Bft)
14/03/2012 17:50 21,4 C 47 % 1024,0 hPa 0,0 mm 6,1 km/h (2 Bft) N-NE 22 2 min 0 W/m 9,6 C 21,4 C 8,6 km/h (2 Bft)
14/03/2012 18:00 21,1 C 46 % 1024,1 hPa 0,0 mm 4,0 km/h (1 Bft) N-NE 22 2 min 0 W/m 9,0 C 21,1 C 6,5 km/h (2 Bft)
14/03/2012 18:10 20,9 C 46 % 1024,3 hPa 0,0 mm 1,8 km/h (1 Bft) N 360 2 min 0 W/m 8,8 C 20,9 C 7,2 km/h (2 Bft)
14/03/2012 18:20 20,5 C 46 % 1024,2 hPa 0,0 mm 0,7 km/h (0 Bft) N-NE 22 2 min 0 W/m 8,5 C 20,5 C 3,6 km/h (1 Bft)
14/03/2012 18:30 19,8 C 47 % 1024,3 hPa 0,0 mm 0,7 km/h (0 Bft) N-NE 22 2 min 0 W/m 8,2 C 19,8 C 4,3 km/h (1 Bft)
14/03/2012 18:40 19,3 C 48 % 1024,4 hPa 0,0 mm 0,7 km/h (0 Bft) N-NE 22 2 min 0 W/m 8,0 C 19,3 C 2,9 km/h (1 Bft)
14/03/2012 18:50 18,6 C 48 % 1024,4 hPa 0,0 mm 2,2 km/h (1 Bft) N-NE 22 2 min 0 W/m 7,4 C 18,6 C 4,0 km/h (1 Bft)
14/03/2012 19:00 18,1 C 49 % 1024,5 hPa 0,0 mm 0,0 km/h (0 Bft) NE 45 0 min 0 W/m 7,2 C 18,1 C 3,6 km/h (1 Bft)
14/03/2012 19:10 17,5 C 50 % 1024,6 hPa 0,0 mm 1,8 km/h (1 Bft) NE 45 0 min 0 W/m 7,0 C 17,5 C 4,3 km/h (1 Bft)
14/03/2012 19:20 16,9 C 50 % 1024,7 hPa 0,0 mm 2,5 km/h (1 Bft) NE 45 0 min 0 W/m 6,4 C 16,9 C 4,0 km/h (1 Bft)
14/03/2012 19:30 16,4 C 52 % 1024,7 hPa 0,0 mm 0,7 km/h (0 Bft) N-NE 22 0 min 0 W/m 6,5 C 16,4 C 0,7 km/h (0 Bft)
14/03/2012 19:40 15,9 C 53 % 1024,7 hPa 0,0 mm 1,4 km/h (1 Bft) N-NE 22 0 min 0 W/m 6,3 C 15,9 C 4,0 km/h (1 Bft)
14/03/2012 19:50 15,6 C 54 % 1024,7 hPa 0,0 mm 0,0 km/h (0 Bft) N-NE 22 0 min 0 W/m 6,3 C 15,6 C 0,0 km/h (0 Bft)
14/03/2012 20:00 15,1 C 55 % 1024,7 hPa 0,0 mm 0,0 km/h (0 Bft) N-NE 22 0 min 0 W/m 6,1 C 15,1 C 0,0 km/h (0 Bft)
14/03/2012 20:10 14,8 C 56 % 1024,7 hPa 0,0 mm 0,0 km/h (0 Bft) NE 45 0 min 0 W/m 6,1 C 14,8 C 3,6 km/h (1 Bft)
14/03/2012 20:20 14,5 C 57 % 1024,7 hPa 0,0 mm 0,0 km/h (0 Bft) N-NE 22 0 min 0 W/m 6,1 C 14,5 C 0,0 km/h (0 Bft)
14/03/2012 20:30 14,3 C 59 % 1024,7 hPa 0,0 mm 2,9 km/h (1 Bft) N-NE 22 0 min 0 W/m 6,4 C 14,3 C 4,0 km/h (1 Bft)
14/03/2012 20:40 14,2 C 58 % 1024,6 hPa 0,0 mm 0,0 km/h (0 Bft) NE 45 0 min 0 W/m 6,1 C 14,2 C 0,0 km/h (0 Bft)
14/03/2012 20:50 13,8 C 59 % 1024,5 hPa 0,0 mm 0,0 km/h (0 Bft) NE 45 0 min 0 W/m 5,9 C 13,8 C 0,0 km/h (0 Bft)
14/03/2012 21:00 13,5 C 60 % 1024,5 hPa 0,0 mm 0,0 km/h (0 Bft) NE 45 0 min 0 W/m 5,9 C 13,5 C 0,0 km/h (0 Bft)
14/03/2012 21:10 13,3 C 61 % 1024,5 hPa 0,0 mm 0,0 km/h (0 Bft) NE 45 0 min 0 W/m 5,9 C 13,3 C 0,0 km/h (0 Bft)
14/03/2012 21:20 13,0 C 62 % 1024,5 hPa 0,0 mm 2,2 km/h (1 Bft) NE 45 0 min 0 W/m 5,9 C 13,0 C 2,2 km/h (1 Bft)
14/03/2012 21:30 12,9 C 62 % 1024,5 hPa 0,0 mm 0,0 km/h (0 Bft) NE 45 0 min 0 W/m 5,8 C 12,9 C 0,0 km/h (0 Bft)
14/03/2012 21:40 12,6 C 62 % 1024,4 hPa 0,0 mm 0,0 km/h (0 Bft) NE 45 0 min 0 W/m 5,5 C 12,6 C 0,0 km/h (0 Bft)
14/03/2012 21:50 12,0 C 63 % 1024,5 hPa 0,0 mm 0,0 km/h (0 Bft) E-NE 67 0 min 0 W/m 5,2 C 12,0 C 0,0 km/h (0 Bft)
14/03/2012 22:00 11,6 C 64 % 1024,5 hPa 0,0 mm 0,0 km/h (0 Bft) E-NE 67 0 min 0 W/m 5,0 C 11,6 C 0,0 km/h (0 Bft)
14/03/2012 22:10 11,1 C 64 % 1024,5 hPa 0,0 mm 0,0 km/h (0 Bft) E-NE 67 0 min 0 W/m 4,6 C 11,1 C 0,0 km/h (0 Bft)
14/03/2012 22:20 10,6 C 64 % 1024,5 hPa 0,0 mm 0,0 km/h (0 Bft) E-NE 67 0 min 0 W/m 4,1 C 10,6 C 0,0 km/h (0 Bft)
14/03/2012 22:30 10,3 C 66 % 1024,5 hPa 0,0 mm 0,0 km/h (0 Bft) E-NE 67 0 min 0 W/m 4,2 C 10,3 C 0,0 km/h (0 Bft)
14/03/2012 22:40 9,8 C 66 % 1024,6 hPa 0,0 mm 0,0 km/h (0 Bft) E-NE 67 0 min 0 W/m 3,8 C 9,8 C 0,0 km/h (0 Bft)
14/03/2012 22:50 9,4 C 68 % 1024,5 hPa 0,0 mm 0,0 km/h (0 Bft) E-NE 67 0 min 0 W/m 3,8 C 9,4 C 0,0 km/h (0 Bft)
14/03/2012 23:00 9,2 C 69 % 1024,4 hPa 0,0 mm 0,0 km/h (0 Bft) E-NE 67 0 min 0 W/m 3,8 C 9,2 C 0,0 km/h (0 Bft)
14/03/2012 23:10 9,0 C 69 % 1024,4 hPa 0,0 mm 0,0 km/h (0 Bft) E-NE 67 0 min 0 W/m 3,6 C 9,0 C 0,0 km/h (0 Bft)
14/03/2012 23:20 8,8 C 70 % 1024,4 hPa 0,0 mm 0,0 km/h (0 Bft) E-NE 67 0 min 0 W/m 3,6 C 8,8 C 0,0 km/h (0 Bft)
14/03/2012 23:30 8,6 C 71 % 1024,4 hPa 0,0 mm 0,0 km/h (0 Bft) E 90 0 min 0 W/m 3,6 C 8,6 C 3,2 km/h (1 Bft)
14/03/2012 23:40 8,6 C 71 % 1024,3 hPa 0,0 mm 1,1 km/h (1 Bft) E 90 0 min 0 W/m 3,6 C 8,6 C 4,3 km/h (1 Bft)
14/03/2012 23:50 8,5 C 72 % 1024,3 hPa 0,0 mm 0,0 km/h (0 Bft) E-SE 112 0 min 0 W/m 3,7 C 8,5 C 0,0 km/h (0 Bft)
_ Min-Heure 08:10 16:50 16:50 - 23:50 - - - - 08:00 08:10 23:50
Minimum _ 3,1 C 44 % 1023,8 hPa - 0,0 km/h (0 Bft) - - - - 1,5 C 3,1 C 0,0 km/h (0 Bft)
_ Max-Heure 15:30 08:40 12:30 23:50 13:10 - - 18:50 23:50 12:40 15:30 13:10
Maximum _ 23,3 C 91 % 1026,0 hPa 0,0 mm 9,0 km/h
N-NO (2 Bft)
- - 2 min 0 W/m 12,2 C 23,3 C 14,4 km/h
N-NO (3 Bft)
Moyenne _ 13,3 C 66 % 1024,9 hPa #0,0 mm 1,5 km/h (1 Bft) N-NE - #1:52 h 0 W/m 6,6 C 13,3 C 2,9 km/h (1 Bft)
Saint Bonnet de Bellac- Haute Vienne - France